NEODyS-2

Near Earth Objects - Dynamic Site
NEODyS ∴ Observatories ∴ Site 691 ∴ Obs & residuals
Contact »
691  ▹ 
OBSERVATIONS AND RESIDUALS

691-Steward Observatory, Kitt Peak-Spacewatch

Detections | Residuals | Detections & Residuals

[1-200] [201-400] [401-600] [601-800] [801-1000] [1001-1200] [1201-1400] [1401-1600] [1601-1800] [1801-2000] [2001-2200] [2201-2400] [2401-2600] [2601-2800] [2801-3000] [3001-3200] [3201-3400] [3401-3600] [3601-3800] [3801-4000] [4001-4200] [4201-4400] [4401-4600] [4601-4800] [4801-5000] [5001-5200] [5201-5400] [5401-5600] [5601-5800] [5801-6000] [6001-6200] [6201-6400] [6401-6600] [6601-6800] [6801-7000] [7001-7200] [7201-7400] [7401-7600] [7601-7800] [7801-8000] [8001-8200] [8201-8400] [8401-8600] [8601-8800] [8801-9000] [9001-9200] [9201-9400] [9401-9600] [9601-9800] [9801-10000] [10001-10200] [10201-10400] [10401-10600] [10601-10800] [10801-11000] [11001-11200] [11201-11400] [11401-11600] [11601-11800] [11801-12000] [12001-12200] [12201-12400] [12401-12600] [12601-12800] [12801-13000] [13001-13200] [13201-13400] [13401-13600] [13601-13800] [13801-14000] [14001-14200] [14201-14400] [14401-14600] [14601-14800] [14801-15000] [15001-15200] [15201-15400] [15401-15600] [15601-15800] [15801-16000] [16001-16200] [16201-16400] [16401-16600] [16601-16800] [16801-17000] [17001-17200] [17201-17400] [17401-17600] [17601-17800] [17801-18000] [18001-18200] [18201-18400] [18401-18600] [18601-18800] [18801-19000] [19001-19200] [19201-19400] [19401-19600] [19601-19800] [19801-20000] [20001-20200] [20201-20400] [20401-20600] [20601-20800] [20801-21000] [21001-21200] [21201-21400] [21401-21600] [21601-21800] [21801-22000] [22001-22200] [22201-22400] [22401-22600] [22601-22800] [22801-23000] [23001-23200] [23201-23400] [23401-23600] [23601-23800] [23801-24000] [24001-24200] [24201-24400] [24401-24600] [24601-24800] [24801-25000] [25001-25200] [25201-25400] [25401-25600] [25601-25800] [25801-26000] [26001-26200] [26201-26400] [26401-26600] [26601-26800] [26801-27000] [27001-27200] [27201-27400] [27401-27600] [27601-27800] [27801-28000] [28001-28200] [28201-28400] [28401-28600] [28601-28800] [28801-29000] [29001-29200] [29201-29400] [29401-29600] [29601-29800] [29801-30000] [30001-30200] [30201-30400] [30401-30600] [30601-30800] [30801-31000] [31001-31200] [31201-31400] [31401-31600] [31601-31800] [31801-32000] [32001-32200] [32201-32400] [32401-32600] [32601-32800] [32801-33000] [33001-33200] [33201-33400] [33401-33600] [33601-33800] [33801-34000] [34001-34200] [34201-34400] [34401-34600] [34601-34800] [34801-35000] [35001-35200] [35201-35400] [35401-35600] [35601-35800] [35801-36000] [36001-36200] [36201-36400] [36401-36600] [36601-36800] [36801-37000] [37001-37200] [37201-37400] [37401-37600] [37601-37800] [37801-38000] [38001-38200] [38201-38400] [38401-38600] [38601-38800] [38801-39000] [39001-39200] [39201-39400] [39401-39600] [39601-39800] [39801-40000] [40001-40200] [40201-40400] [40401-40600] [40601-40800] [40801-41000] [41001-41200] [41201-41400] [41401-41600] [41601-41800] [41801-42000] [42001-42200] [42201-42400] [42401-42600] [42601-42800] [42801-43000] [43001-43200] [43201-43400] [43401-43600] [43601-43800] [43801-44000] [44001-44200] [44201-44400] [44401-44600] [44601-44800] [44801-45000] [45001-45200] [45201-45400] [45401-45600] [45601-45800] [45801-46000] [46001-46200] [46201-46400] [46401-46600] [46601-46800] [46801-47000] [47001-47200] [47201-47400] [47401-47600] [47601-47800] [47801-48000] [48001-48200] [48201-48400] [48401-48600] [48601-48800] [48801-49000] [49001-49200] [49201-49400] [49401-49600] [49601-49800] [49801-50000] [50001-50200] [50201-50388]

Designation T Tech N Date Right Ascension Declination Apparent Magnitude Star Catalog Site code χ Used A Used M
yr-mo-day precision hr:min:sec precision rms F bias residual deg min sec precision rms F bias residual mag/col rms residual
2016FF1 O C 2016-03-31.38373 1.000E-05 14:32:26.030 1.500E-01 0.500 F 0.142 0.155 -03° 31' 46.20" 1.000E-01 0.500 F 0.098 0.276 20.2 V 0.70 0.06 o 691 0.64 Yes Yes
2016FZ2 O C m 2016-03-31.38863 1.000E-05 14:15:38.780 1.500E-01 0.500 F 0.335 -0.160 -26° 09' 41.60" 1.000E-01 0.500 F 0.349 0.559 20.6 V 0.70 0.55 o 691 1.33 Yes Yes
2016FZ2 O C m 2016-03-31.39088 1.000E-05 14:15:39.060 1.500E-01 0.500 F 0.335 -0.329 -26° 10' 05.80" 1.000E-01 0.500 F 0.349 -0.595 20.2 V 0.70 0.15 o 691 1.55 Yes Yes
2016EP85 O C H 2016-03-31.39748 1.000E-05 14:35:23.980 1.500E-01 0.500 F 0.255 0.070 -09° 28' 29.90" 1.000E-01 0.500 F 0.185 -0.348 o 691 0.71 Yes No
2016EP85 O C H 2016-03-31.40349 1.000E-05 14:35:24.110 1.500E-01 0.500 F 0.255 -0.663 -09° 28' 31.70" 1.000E-01 0.500 F 0.185 -0.433 21.7 V 0.70 0.45 o 691 1.60 Yes Yes
2016EP85 O C H 2016-03-31.40950 1.000E-05 14:35:24.390 1.500E-01 0.500 F 0.255 0.824 -09° 28' 33.50" 1.000E-01 0.500 F 0.185 -0.524 21.2 V 0.70 -0.05 o 691 1.97 Yes Yes
2016FY3 O C H 2016-03-31.41528 1.000E-05 14:46:54.830 1.500E-01 0.500 F 0.146 -0.380 +22° 45' 13.60" 1.000E-01 0.500 F 0.217 -0.258 20.7 V 0.70 0.21 o 691 0.92 Yes Yes
2016FY3 O C H 2016-03-31.42037 1.000E-05 14:46:55.070 1.500E-01 0.500 F 0.146 -0.063 +22° 45' 14.60" 1.000E-01 0.500 F 0.217 0.053 20.6 V 0.70 0.11 o 691 0.17 Yes Yes
2016FY3 O C H 2016-03-31.42545 1.000E-05 14:46:55.290 1.500E-01 0.500 F 0.146 -0.020 +22° 45' 15.10" 1.000E-01 0.500 F 0.217 -0.124 20.6 V 0.70 0.11 o 691 0.25 Yes Yes
2016EN84 O C m 2016-03-31.43599 1.000E-05 17:02:53.880 1.500E-01 0.500 F -0.019 -1.039 -06° 18' 33.70" 1.000E-01 0.500 F 0.192 0.283 20.8 V 0.70 0.35 o 691 2.25 Yes Yes
2016EN84 O C m 2016-03-31.43916 1.000E-05 17:02:54.770 1.500E-01 0.500 F -0.019 -0.299 -06° 18' 38.80" 1.000E-01 0.500 F 0.192 -0.443 20.7 V 0.70 0.25 o 691 1.09 Yes Yes
2016EN84 O C m 2016-03-31.44234 1.000E-05 17:02:55.700 1.500E-01 0.500 F -0.019 1.000 -06° 18' 42.00" 1.000E-01 0.500 F 0.192 0.743 20.5 V 0.70 0.05 o 691 2.56 Yes Yes
2016EP86 O C m 2016-03-31.46146 1.000E-05 15:14:21.670 1.500E-01 0.500 F 0.024 -0.134 -07° 34' 30.50" 1.000E-01 0.500 F 0.278 -0.128 20.6 V 0.70 0.20 o 691 0.37 Yes Yes
2016EP86 O C m 2016-03-31.46534 1.000E-05 15:14:22.240 1.500E-01 0.500 F 0.024 0.039 -07° 34' 28.60" 1.000E-01 0.500 F 0.278 -0.166 20.6 V 0.70 0.20 o 691 0.34 Yes Yes
2016EP86 O C m 2016-03-31.46921 1.000E-05 15:14:22.800 1.500E-01 0.500 F 0.024 0.080 -07° 34' 26.70" 1.000E-01 0.500 F 0.278 -0.202 20.6 V 0.70 0.20 o 691 0.44 Yes Yes
2015VC2 O C m 2016-03-31.47889 1.000E-05 14:31:22.080 1.500E-01 0.500 F 0.186 -1.796 -12° 22' 52.10" 1.000E-01 0.500 F 0.065 0.931 21.4 V 0.70 0.06 o 691 4.02 No Yes
2015VC2 O C m 2016-03-31.48414 1.000E-05 14:31:21.070 1.500E-01 0.500 F 0.186 -0.766 -12° 22' 40.90" 1.000E-01 0.500 F 0.065 0.278 21.4 V 0.70 0.06 o 691 1.64 Yes Yes
2015VC2 O C m 2016-03-31.48940 1.000E-05 14:31:20.040 1.500E-01 0.500 F 0.186 -0.130 -12° 22' 29.40" 1.000E-01 0.500 F 0.065 -0.137 o 691 0.38 Yes No
2008TZ3 O C 2016-03-31.49439 1.000E-05 14:24:19.770 1.500E-01 0.500 F -0.019 -0.037 +12° 41' 42.40" 1.000E-01 0.500 F 0.224 -0.089 18.7 V 0.70 0.02 o 691 0.19 Yes Yes
2000EF104 O C 2016-03-31.49439 1.000E-05 14:26:42.080 1.500E-01 0.500 F -0.019 -0.348 +12° 59' 03.00" 1.000E-01 0.500 F 0.224 -0.097 19.2 V 0.70 0.16 o 691 0.73 Yes Yes
2008TZ3 O C 2016-03-31.49739 1.000E-05 14:24:19.980 1.500E-01 0.500 F -0.019 0.005 +12° 41' 42.00" 1.000E-01 0.500 F 0.224 -0.102 18.7 V 0.70 0.02 o 691 0.21 Yes Yes
2000EF104 O C 2016-03-31.49739 1.000E-05 14:26:41.520 1.500E-01 0.500 F -0.019 -0.457 +12° 59' 04.00" 1.000E-01 0.500 F 0.224 -0.210 19.2 V 0.70 0.16 o 691 1.01 Yes Yes
2008TZ3 O C 2016-03-31.50039 1.000E-05 14:24:20.180 1.500E-01 0.500 F -0.019 -0.108 +12° 41' 41.70" 1.000E-01 0.500 F 0.224 -0.013 18.7 V 0.70 0.02 o 691 0.22 Yes Yes
2000EF104 O C 2016-03-31.50039 1.000E-05 14:26:40.960 1.500E-01 0.500 F -0.019 -0.568 +12° 59' 05.30" 1.000E-01 0.500 F 0.224 -0.022 19.2 V 0.70 0.16 o 691 1.14 Yes Yes
2016EE157 O C 2016-03-31.50328 1.000E-05 14:06:11.800 1.500E-01 0.500 F 0.243 1.145 +22° 44' 45.70" 1.000E-01 0.500 F 0.292 1.461 19.6 V 0.70 -0.41 o 691 3.69 No Yes
2016EE157 O C 2016-03-31.50554 1.000E-05 14:06:11.670 1.500E-01 0.500 F 0.243 -0.173 +22° 44' 57.60" 1.000E-01 0.500 F 0.292 0.260 20.0 V 0.70 -0.01 o 691 0.63 Yes Yes
2016EE157 O C 2016-03-31.50779 1.000E-05 14:06:11.610 1.500E-01 0.500 F 0.243 -0.528 +22° 45' 10.90" 1.000E-01 0.500 F 0.292 0.516 20.1 V 0.70 0.09 o 691 1.49 Yes Yes
2016FC15 O C H 2016-04-01.15864 1.000E-05 09:06:37.620 1.500E-01 0.500 F 0.077 0.661 -03° 54' 55.40" 1.000E-01 0.500 F 0.038 -0.136 o 691 1.36 Yes No
2016FC15 O C H 2016-04-01.16279 1.000E-05 09:06:38.510 1.500E-01 0.500 F 0.077 -0.177 -03° 54' 53.90" 1.000E-01 0.500 F 0.038 -1.025 o 691 2.09 Yes No
2016FC15 O C H 2016-04-01.16695 1.000E-05 09:06:39.530 1.500E-01 0.500 F 0.077 0.899 -03° 54' 51.40" 1.000E-01 0.500 F 0.038 -0.920 o 691 2.59 Yes No
2014EK24 O C H 2016-04-01.20687 1.000E-05 08:50:26.780 1.500E-01 0.500 F 0.091 -0.576 -04° 44' 49.50" 1.000E-01 0.500 F 0.040 0.356 20.7 V 0.70 0.13 o 691 1.36 Yes Yes
2014EK24 O C H 2016-04-01.21565 1.000E-05 08:50:27.140 1.500E-01 0.500 F 0.091 -0.247 -04° 45' 00.90" 1.000E-01 0.500 F 0.040 -0.157 20.5 V 0.70 -0.07 o 691 0.59 Yes Yes
2007VZ137 O C H 2016-04-01.22753 1.000E-05 10:38:36.590 1.500E-01 0.500 F 0.191 -1.170 -04° 56' 04.40" 1.000E-01 0.500 F 0.120 1.804 21.9 V 0.70 0.73 o 691 4.25 No Yes
2007VZ137 O C H 2016-04-01.23215 1.000E-05 10:38:35.710 1.500E-01 0.500 F 0.191 -0.489 -04° 55' 59.80" 1.000E-01 0.500 F 0.120 0.159 21.7 V 0.70 0.53 o 691 1.04 Yes Yes
2007VZ137 O C H 2016-04-01.23677 1.000E-05 10:38:34.640 1.500E-01 0.500 F 0.191 -2.647 -04° 55' 52.60" 1.000E-01 0.500 F 0.120 1.112 21.6 V 0.70 0.43 o 691 5.68 No Yes
2016FV13 O C H 2016-04-01.26609 1.000E-05 11:19:09.430 1.500E-01 0.500 F 0.346 -0.669 -13° 53' 22.30" 1.000E-01 0.500 F -0.057 -0.152 21.1 V 0.70 0.07 o 691 1.38 Yes Yes
2016FV13 O C H 2016-04-01.27048 1.000E-05 11:19:08.670 1.500E-01 0.500 F 0.346 -0.645 -13° 53' 21.40" 1.000E-01 0.500 F -0.057 -0.018 21.2 V 0.70 0.17 o 691 1.30 Yes Yes
2016FV13 O C H 2016-04-01.27486 1.000E-05 11:19:07.910 1.500E-01 0.500 F 0.346 -0.647 -13° 53' 20.80" 1.000E-01 0.500 F -0.057 -0.204 21.3 V 0.70 0.27 o 691 1.36 Yes Yes
2016FW14 O C H 2016-04-01.27930 1.000E-05 11:40:52.240 1.500E-01 0.500 F 0.131 0.062 -20° 34' 35.90" 1.000E-01 0.500 F -0.142 0.215 21.3 V 0.70 0.28 o 691 0.45 Yes Yes
2016FW14 O C H 2016-04-01.28369 1.000E-05 11:40:51.370 1.500E-01 0.500 F 0.131 -0.720 -20° 34' 38.10" 1.000E-01 0.500 F -0.142 -0.496 21.2 V 0.70 0.18 o 691 1.77 Yes Yes
2016FW14 O C H 2016-04-01.28808 1.000E-05 11:40:50.560 1.500E-01 0.500 F 0.131 -0.661 -20° 34' 38.70" 1.000E-01 0.500 F -0.142 0.388 20.8 V 0.70 -0.22 o 691 1.54 Yes Yes
2016FJ39 O C H 2016-04-01.43697 1.000E-05 15:11:42.350 1.500E-01 0.500 F 0.021 0.086 +08° 09' 51.50" 1.000E-01 0.500 F 0.086 -0.128 21.3 V 0.70 0.00 o 691 0.31 Yes Yes
2016FJ39 O C H 2016-04-01.44136 1.000E-05 15:11:42.970 1.500E-01 0.500 F 0.021 0.618 +08° 09' 52.50" 1.000E-01 0.500 F 0.086 -0.505 21.1 V 0.70 -0.20 o 691 1.61 Yes Yes
2016FJ39 O C H 2016-04-01.44574 1.000E-05 15:11:43.510 1.500E-01 0.500 F 0.021 -0.021 +08° 09' 54.40" 1.000E-01 0.500 F 0.086 0.025 21.3 V 0.70 0.00 o 691 0.07 Yes Yes
2016FF15 O C H 2016-04-01.49001 1.000E-05 15:15:44.590 1.500E-01 0.500 F 0.121 -0.655 -04° 44' 58.90" 1.000E-01 0.500 F 0.176 0.176 21.1 V 0.70 -0.31 o 691 1.36 Yes Yes
2016FF15 O C H 2016-04-01.49463 1.000E-05 15:15:44.080 1.500E-01 0.500 F 0.121 -0.058 -04° 44' 57.70" 1.000E-01 0.500 F 0.176 -0.374 21.1 V 0.70 -0.31 o 691 0.76 Yes Yes
2016FF15 O C H 2016-04-01.49925 1.000E-05 15:15:43.560 1.500E-01 0.500 F 0.121 0.388 -04° 44' 55.80" 1.000E-01 0.500 F 0.176 -0.225 21.1 V 0.70 -0.31 o 691 0.90 Yes Yes
1997ET30 O C 2016-04-02.31554 1.000E-05 14:05:45.120 1.500E-01 0.500 F 0.375 -0.189 -12° 03' 48.30" 1.000E-01 0.500 F 0.102 -0.076 18.1 V 0.70 0.18 o 691 0.41 Yes Yes
2004EC O C 2016-04-02.32485 1.000E-05 14:11:34.020 1.500E-01 0.500 F 0.271 -0.538 -13° 02' 20.50" 1.000E-01 0.500 F 0.086 0.555 20.7 V 0.70 -0.06 o 691 1.55 Yes Yes
1997ET30 O C 2016-04-02.33415 1.000E-05 14:05:44.270 1.500E-01 0.500 F 0.375 -0.291 -12° 03' 53.60" 1.000E-01 0.500 F 0.102 -0.032 18.0 V 0.70 0.08 o 691 0.59 Yes Yes
2004EC O C 2016-04-02.34344 1.000E-05 14:11:32.620 1.500E-01 0.500 F 0.271 0.184 -13° 02' 16.70" 1.000E-01 0.500 F 0.086 0.484 20.7 V 0.70 -0.06 o 691 1.04 Yes Yes
1997ET30 O C 2016-04-02.35274 1.000E-05 14:05:43.410 1.500E-01 0.500 F 0.375 -0.508 -12° 03' 58.70" 1.000E-01 0.500 F 0.102 0.175 17.9 V 0.70 -0.02 o 691 1.08 Yes Yes
2004EC O C 2016-04-02.36204 1.000E-05 14:11:31.110 1.500E-01 0.500 F 0.271 -0.679 -13° 02' 13.10" 1.000E-01 0.500 F 0.086 0.200 20.9 V 0.70 0.14 o 691 1.42 Yes Yes
2016FF14 O C 2016-04-02.37911 1.000E-05 13:24:24.530 1.500E-01 0.500 F 0.314 -0.614 -09° 38' 09.50" 1.000E-01 0.500 F 0.006 -0.140 19.9 V 0.70 0.02 o 691 1.28 Yes Yes
2016FF14 O C 2016-04-02.39773 1.000E-05 13:24:32.540 1.500E-01 0.500 F 0.314 -0.151 -09° 40' 09.30" 1.000E-01 0.500 F 0.006 -0.242 20.0 V 0.70 0.11 o 691 0.58 Yes Yes
2016FF14 O C 2016-04-02.41633 1.000E-05 13:24:40.520 1.500E-01 0.500 F 0.314 -0.496 -09° 42' 06.80" 1.000E-01 0.500 F 0.006 0.243 20.0 V 0.70 0.10 o 691 1.13 Yes Yes
2016FC15 O C H 2016-04-03.14190 1.000E-05 09:14:17.260 1.500E-01 0.500 F 0.142 -0.805 -03° 36' 41.50" 1.000E-01 0.500 F 0.094 -0.750 20.7 V 0.70 -0.30 o 691 2.22 Yes Yes
2016FC15 O C H 2016-04-03.14606 1.000E-05 09:14:18.190 1.500E-01 0.500 F 0.142 -0.385 -03° 36' 39.60" 1.000E-01 0.500 F 0.094 -1.041 20.8 V 0.70 -0.20 o 691 2.23 Yes Yes
2016GQ2 O C H 2016-04-03.15021 1.000E-05 09:22:33.730 1.500E-01 0.500 F 0.015 0.521 -07° 09' 08.00" 1.000E-01 0.500 F 0.089 1.752 22.0 V 0.70 0.30 o 691 3.59 No Yes
2016GQ2 O C H 2016-04-03.15478 1.000E-05 09:22:34.220 1.500E-01 0.500 F 0.015 0.338 -07° 09' 01.30" 1.000E-01 0.500 F 0.089 1.207 21.4 V 0.70 -0.30 o 691 2.55 Yes Yes
2016GQ2 O C H 2016-04-03.15935 1.000E-05 09:22:34.730 1.500E-01 0.500 F 0.015 0.453 -07° 08' 55.00" 1.000E-01 0.500 F 0.089 0.263 21.8 V 0.70 0.10 o 691 1.07 Yes Yes
1998SH2 O C H 2016-04-03.16426 1.000E-05 10:32:54.340 1.500E-01 0.500 F 0.232 -0.425 +09° 44' 29.50" 1.000E-01 0.500 F 0.266 -0.912 o 691 2.02 Yes No
1998SH2 O C H 2016-04-03.16866 1.000E-05 10:32:53.680 1.500E-01 0.500 F 0.232 0.859 +09° 44' 32.20" 1.000E-01 0.500 F 0.266 -1.227 o 691 3.01 Yes No
1998SH2 O C H 2016-04-03.17305 1.000E-05 10:32:53.020 1.500E-01 0.500 F 0.232 2.122 +09° 44' 35.30" 1.000E-01 0.500 F 0.266 -1.133 o 691 4.79 No No
2016GT O C H 2016-04-03.18952 1.000E-05 11:53:26.430 1.500E-01 0.500 F 0.236 -0.336 -05° 31' 13.50" 1.000E-01 0.500 F 0.295 -0.415 20.6 V 0.70 -0.31 o 691 1.08 Yes Yes
2016GT O C H 2016-04-03.19275 1.000E-05 11:53:27.750 1.500E-01 0.500 F 0.236 0.268 -05° 31' 19.60" 1.000E-01 0.500 F 0.295 -0.073 20.7 V 0.70 -0.21 o 691 0.58 Yes Yes
2016GT O C H 2016-04-03.19599 1.000E-05 11:53:28.970 1.500E-01 0.500 F 0.236 -0.648 -05° 31' 25.90" 1.000E-01 0.500 F 0.295 0.081 20.5 V 0.70 -0.41 o 691 1.36 Yes Yes
2016CB30 O C 2016-04-03.21319 1.000E-05 12:07:38.240 1.500E-01 0.500 F 0.224 -0.348 -05° 34' 52.30" 1.000E-01 0.500 F 0.043 0.330 19.2 V 0.70 -0.08 o 691 0.98 Yes Yes
2016CB30 O C 2016-04-03.21781 1.000E-05 12:07:39.600 1.500E-01 0.500 F 0.224 -0.116 -05° 35' 12.60" 1.000E-01 0.500 F 0.043 -0.096 19.4 V 0.70 0.12 o 691 0.31 Yes Yes
2016CB30 O C 2016-04-03.22242 1.000E-05 12:07:40.940 1.500E-01 0.500 F 0.224 -0.112 -05° 35' 32.40" 1.000E-01 0.500 F 0.043 -0.074 19.3 V 0.70 0.02 o 691 0.27 Yes Yes
2016GZ O C H 2016-04-03.28365 1.000E-05 12:58:19.430 1.500E-01 0.500 F 0.271 0.351 -05° 26' 13.80" 1.000E-01 0.500 F 0.185 -0.374 21.7 V 0.70 -0.06 o 691 1.03 Yes Yes
2016GZ O C H 2016-04-03.28945 1.000E-05 12:58:20.330 1.500E-01 0.500 F 0.271 1.858 -05° 26' 10.20" 1.000E-01 0.500 F 0.185 0.809 22.0 V 0.70 0.24 o 691 4.03 No Yes
2016GZ O C H 2016-04-03.29523 1.000E-05 12:58:21.140 1.500E-01 0.500 F 0.271 2.069 -05° 26' 06.70" 1.000E-01 0.500 F 0.185 1.897 21.9 V 0.70 0.14 o 691 5.58 No Yes
2016GD1 O C H 2016-04-03.31309 1.000E-05 13:25:33.800 1.500E-01 0.500 F 0.303 -0.902 -09° 20' 21.30" 1.000E-01 0.500 F 0.009 0.810 20.5 V 0.70 -0.54 o 691 2.44 Yes Yes
2016GD1 O C H 2016-04-03.31748 1.000E-05 13:25:33.890 1.500E-01 0.500 F 0.303 0.387 -09° 20' 29.50" 1.000E-01 0.500 F 0.009 -0.236 21.1 V 0.70 0.06 o 691 0.91 Yes Yes
2016GD1 O C H 2016-04-03.32187 1.000E-05 13:25:33.900 1.500E-01 0.500 F 0.303 0.495 -09° 20' 36.60" 1.000E-01 0.500 F 0.009 -0.185 20.9 V 0.70 -0.14 o 691 1.07 Yes Yes
2016GE2 O C H 2016-04-03.33939 1.000E-05 14:03:50.250 1.500E-01 0.500 F 0.089 0.508 -18° 47' 16.50" 1.000E-01 0.500 F 0.077 -0.867 o 691 2.02 Yes No
2016GE2 O C H 2016-04-03.34378 1.000E-05 14:03:50.730 1.500E-01 0.500 F 0.089 0.268 -18° 47' 13.60" 1.000E-01 0.500 F 0.077 -0.392 o 691 0.96 Yes No
2016GE2 O C H 2016-04-03.34817 1.000E-05 14:03:51.230 1.500E-01 0.500 F 0.089 0.312 -18° 47' 11.60" 1.000E-01 0.500 F 0.077 -0.824 o 691 1.78 Yes No
2016FF15 O C H 2016-04-03.42270 1.000E-05 15:11:57.060 1.500E-01 0.500 F 0.146 -0.677 -04° 32' 52.70" 1.000E-01 0.500 F 0.160 -0.097 21.2 V 0.70 -0.19 o 691 1.37 Yes Yes
2016FF15 O C H 2016-04-03.42642 1.000E-05 15:11:56.620 1.500E-01 0.500 F 0.146 -0.447 -04° 32' 51.50" 1.000E-01 0.500 F 0.160 -0.291 20.9 V 0.70 -0.49 o 691 1.07 Yes Yes
2016FF15 O C H 2016-04-03.43011 1.000E-05 15:11:56.240 1.500E-01 0.500 F 0.146 0.626 -04° 32' 49.80" 1.000E-01 0.500 F 0.160 0.026 21.1 V 0.70 -0.29 o 691 1.26 Yes Yes
2005GR33 O C H 2016-04-03.48528 1.000E-05 17:10:21.600 1.500E-01 0.500 F 0.155 0.042 +09° 38' 03.50" 1.000E-01 0.500 F 0.193 -0.151 o 691 0.32 Yes No
2005GR33 O C H 2016-04-03.48897 1.000E-05 17:10:21.640 1.500E-01 0.500 F 0.155 0.329 +09° 37' 46.00" 1.000E-01 0.500 F 0.193 -0.967 o 691 2.08 Yes No
2005GR33 O C H 2016-04-03.49267 1.000E-05 17:10:21.670 1.500E-01 0.500 F 0.155 0.470 +09° 37' 30.00" 1.000E-01 0.500 F 0.193 -0.217 o 691 1.05 Yes No
1997XR2 O C H 2016-04-04.13448 1.000E-05 09:19:23.090 1.500E-01 0.500 F 0.047 -0.219 -08° 43' 39.20" 1.000E-01 0.500 F 0.054 0.092 20.7 V 0.70 -0.05 o 691 0.48 Yes Yes
1997XR2 O C H 2016-04-04.13766 1.000E-05 09:19:23.020 1.500E-01 0.500 F 0.047 0.093 -08° 43' 35.90" 1.000E-01 0.500 F 0.054 -0.743 20.7 V 0.70 -0.05 o 691 1.50 Yes Yes
1997XR2 O C H 2016-04-04.14084 1.000E-05 09:19:22.890 1.500E-01 0.500 F 0.047 -0.483 -08° 43' 31.50" 1.000E-01 0.500 F 0.054 -0.479 21.1 V 0.70 0.35 o 691 1.36 Yes Yes
2016FC15 O C H 2016-04-04.14437 1.000E-05 09:18:01.040 1.500E-01 0.500 F 0.070 -1.306 -03° 28' 03.30" 1.000E-01 0.500 F 0.033 0.570 21.0 V 0.70 -0.05 o 691 2.87 Yes Yes
2016FC15 O C H 2016-04-04.14731 1.000E-05 09:18:01.790 1.500E-01 0.500 F 0.070 0.609 -03° 28' 01.70" 1.000E-01 0.500 F 0.033 0.693 21.1 V 0.70 0.05 o 691 1.86 Yes Yes
2015NS13 O C H 2016-04-04.15498 1.000E-05 10:29:56.170 1.500E-01 0.500 F 0.130 4.251 -22° 27' 37.50" 1.000E-01 0.500 F -0.083 2.752 19.6 V 0.70 -2.03 o 691 10.07 No No
2015NS13 O C H 2016-04-04.16365 1.000E-05 10:29:55.370 1.500E-01 0.500 F 0.130 -0.927 -22° 27' 32.50" 1.000E-01 0.500 F -0.083 0.414 21.6 V 0.70 -0.04 o 691 2.04 Yes Yes
2016FT3 O C H 2016-04-04.16785 1.000E-05 10:28:17.870 1.500E-01 0.500 F 0.191 0.064 -16° 23' 49.50" 1.000E-01 0.500 F -0.123 -0.503 o 691 1.03 Yes No
2016FT3 O C H 2016-04-04.17421 1.000E-05 10:28:17.980 1.500E-01 0.500 F 0.191 0.266 -16° 23' 36.60" 1.000E-01 0.500 F -0.123 -0.424 o 691 1.01 Yes No
2016GJ134 O C H 2016-04-04.21346 1.000E-05 10:44:05.090 1.500E-01 0.500 F 0.215 0.995 +08° 35' 56.70" 1.000E-01 0.500 F 0.306 -1.086 21.5 V 0.70 0.12 o 691 3.14 Yes Yes
2016GJ134 O C H 2016-04-04.21692 1.000E-05 10:44:05.850 1.500E-01 0.500 F 0.215 0.323 +08° 35' 50.50" 1.000E-01 0.500 F 0.306 -0.721 21.5 V 0.70 0.12 o 691 1.66 Yes Yes
2016GJ134 O C H 2016-04-04.22038 1.000E-05 10:44:06.590 1.500E-01 0.500 F 0.215 -0.640 +08° 35' 44.60" 1.000E-01 0.500 F 0.306 -0.055 21.3 V 0.70 -0.08 o 691 1.37 Yes Yes
2016FV13 O C H 2016-04-04.31438 1.000E-05 11:10:28.490 1.500E-01 0.500 F 0.168 0.281 -13° 38' 39.00" 1.000E-01 0.500 F -0.011 0.319 20.5 V 0.70 0.20 o 691 0.86 Yes Yes
2016FV13 O C H 2016-04-04.31738 1.000E-05 11:10:27.530 1.500E-01 0.500 F 0.168 -0.265 -13° 38' 37.20" 1.000E-01 0.500 F -0.011 0.334 20.5 V 0.70 0.20 o 691 0.86 Yes Yes
2016FV13 O C H 2016-04-04.32038 1.000E-05 11:10:26.640 1.500E-01 0.500 F 0.168 0.191 -13° 38' 35.90" 1.000E-01 0.500 F -0.011 -0.167 20.5 V 0.70 0.20 o 691 0.51 Yes Yes
2016GL134 O C H 2016-04-04.32453 1.000E-05 12:02:27.010 1.500E-01 0.500 F 0.104 0.405 +16° 21' 17.50" 1.000E-01 0.500 F 0.290 -0.994 22.0 V 0.70 0.50 o 691 2.24 Yes Yes
2016GL134 O C H 2016-04-04.32795 1.000E-05 12:02:27.880 1.500E-01 0.500 F 0.104 0.266 +16° 21' 09.60" 1.000E-01 0.500 F 0.290 -0.357 22.0 V 0.70 0.50 o 691 0.93 Yes Yes
2016GL134 O C H 2016-04-04.33136 1.000E-05 12:02:28.720 1.500E-01 0.500 F 0.104 -0.273 +16° 21' 02.60" 1.000E-01 0.500 F 0.290 1.161 21.2 V 0.70 -0.30 o 691 2.48 Yes Yes
2015XR128 O C H 2016-04-05.15437 1.000E-05 07:30:30.860 1.500E-01 0.500 F -0.073 -1.380 -03° 21' 54.90" 1.000E-01 0.500 F 0.098 -0.371 o 691 2.86 Yes No
2015XR128 O C H 2016-04-05.15755 1.000E-05 07:30:31.580 1.500E-01 0.500 F -0.073 0.948 -03° 21' 56.70" 1.000E-01 0.500 F 0.098 -0.874 o 691 2.59 Yes No
2000DM1 O C 2016-04-05.16128 1.000E-05 08:42:42.340 1.500E-01 0.500 F 0.088 -0.348 +02° 56' 32.80" 1.000E-01 0.500 F 0.128 -0.028 o 691 0.70 Yes No
2000DM1 O C 2016-04-05.16353 1.000E-05 08:42:41.980 1.500E-01 0.500 F 0.088 -0.291 +02° 56' 30.40" 1.000E-01 0.500 F 0.128 0.027 o 691 0.59 Yes No
2000DM1 O C 2016-04-05.16579 1.000E-05 08:42:41.610 1.500E-01 0.500 F 0.088 -0.360 +02° 56' 27.70" 1.000E-01 0.500 F 0.128 -0.207 o 691 0.84 Yes No
2000DP107 O C 2016-04-05.20913 1.000E-05 09:49:24.930 1.500E-01 0.500 F 0.100 -0.346 +12° 01' 01.50" 1.000E-01 0.500 F 0.283 -0.261 o 691 0.87 Yes No
2000DP107 O C 2016-04-05.21115 1.000E-05 09:49:24.680 1.500E-01 0.500 F 0.100 -0.201 +12° 01' 00.80" 1.000E-01 0.500 F 0.283 -0.105 o 691 0.45 Yes No
2000DP107 O C 2016-04-05.21317 1.000E-05 09:49:24.400 1.500E-01 0.500 F 0.100 -0.496 +12° 01' 00.00" 1.000E-01 0.500 F 0.283 -0.049 o 691 1.00 Yes No
2016GS2 O C H 2016-04-05.39186 1.000E-05 14:30:01.560 1.500E-01 0.500 F 0.223 0.440 +00° 29' 57.00" 1.000E-01 0.500 F 0.243 -0.048 21.0 V 0.70 -0.13 o 691 0.89 Yes Yes
2016GS2 O C H 2016-04-05.39963 1.000E-05 14:30:01.570 1.500E-01 0.500 F 0.223 -0.725 +00° 30' 00.50" 1.000E-01 0.500 F 0.243 -0.746 21.4 V 0.70 0.27 o 691 2.09 Yes Yes
2016GS2 O C H 2016-04-05.40740 1.000E-05 14:30:01.680 1.500E-01 0.500 F 0.223 -0.401 +00° 30' 06.70" 1.000E-01 0.500 F 0.243 1.255 21.3 V 0.70 0.18 o 691 2.64 Yes Yes
2016FU3 O C H 2016-04-05.46552 1.000E-05 15:50:30.040 1.500E-01 0.500 F 0.178 0.990 +09° 34' 01.90" 1.000E-01 0.500 F 0.192 0.142 21.2 V 0.70 0.94 o 691 2.08 Yes Yes
2016FU3 O C H 2016-04-05.46939 1.000E-05 15:50:29.750 1.500E-01 0.500 F 0.178 -1.038 +09° 33' 36.40" 1.000E-01 0.500 F 0.192 -3.625 21.2 V 0.70 0.94 o 691 7.24 No Yes
2016FU3 O C H 2016-04-05.47327 1.000E-05 15:50:29.590 1.500E-01 0.500 F 0.178 -1.142 +09° 33' 13.60" 1.000E-01 0.500 F 0.192 -4.631 21.1 V 0.70 0.84 o 691 9.16 No Yes
2016FP12 O C H 2016-04-10.15445 1.000E-05 10:27:21.370 1.500E-01 0.500 F 0.138 5.632 +02° 23' 01.20" 1.000E-01 0.500 F 0.153 -1.872 o 691 11.71 No No
2016FP12 O C H 2016-04-10.15740 1.000E-05 10:27:20.110 1.500E-01 0.500 F 0.138 4.658 +02° 23' 04.70" 1.000E-01 0.500 F 0.153 -3.677 o 691 11.72 No No
2016FP12 O C H 2016-04-10.16035 1.000E-05 10:27:18.580 1.500E-01 0.500 F 0.138 -0.353 +02° 23' 12.70" 1.000E-01 0.500 F 0.153 -0.981 o 691 2.10 Yes No
2016FC15 O C H 2016-04-10.16495 1.000E-05 09:38:42.960 1.500E-01 0.500 F 0.021 0.604 -02° 44' 38.40" 1.000E-01 0.500 F 0.102 -0.178 o 691 1.27 Yes No
2016FC15 O C H 2016-04-10.16813 1.000E-05 09:38:43.590 1.500E-01 0.500 F 0.021 1.208 -02° 44' 37.60" 1.000E-01 0.500 F 0.102 -0.534 21.2 V 0.70 -0.17 o 691 2.66 Yes Yes
2016FC15 O C H 2016-04-10.17130 1.000E-05 09:38:44.090 1.500E-01 0.500 F 0.021 -0.108 -02° 44' 37.00" 1.000E-01 0.500 F 0.102 -1.087 o 691 2.20 Yes No
2016GO206 O C 2016-04-10.22516 1.000E-05 13:02:05.750 1.500E-01 0.500 F 0.297 -0.279 -01° 17' 15.20" 1.000E-01 0.500 F 0.160 0.546 20.6 V 0.70 0.23 o 691 1.24 Yes Yes
2016GO206 O C 2016-04-10.22972 1.000E-05 13:02:06.260 1.500E-01 0.500 F 0.297 0.070 -01° 17' 23.40" 1.000E-01 0.500 F 0.160 -0.215 20.2 V 0.70 -0.17 o 691 0.46 Yes Yes
2016GO206 O C 2016-04-10.23427 1.000E-05 13:02:06.700 1.500E-01 0.500 F 0.297 -0.536 -01° 17' 30.80" 1.000E-01 0.500 F 0.160 -0.215 20.4 V 0.70 0.02 o 691 1.17 Yes Yes
2014JY24 O C 2016-04-13.50602 1.000E-05 16:56:22.180 1.500E-01 0.500 F 0.066 -0.195 +08° 58' 21.10" 1.000E-01 0.500 F 0.233 -0.005 19.4 V 0.70 0.25 o 691 0.39 Yes Yes
2014JY24 O C 2016-04-13.50774 1.000E-05 16:56:21.800 1.500E-01 0.500 F 0.066 -0.426 +08° 58' 19.00" 1.000E-01 0.500 F 0.233 -0.318 19.5 V 0.70 0.35 o 691 1.07 Yes Yes
2014JY24 O C 2016-04-13.50946 1.000E-05 16:56:21.450 1.500E-01 0.500 F 0.066 -0.212 +08° 58' 17.40" 1.000E-01 0.500 F 0.233 -0.131 19.5 V 0.70 0.35 o 691 0.50 Yes Yes
2016EK157 O C m 2016-04-14.17710 1.000E-05 11:35:29.550 1.500E-01 0.500 F 0.259 0.210 -02° 22' 30.40" 1.000E-01 0.500 F 0.072 1.404 20.8 V 0.70 -0.30 o 691 3.00 Yes Yes
2016EK157 O C m 2016-04-14.18074 1.000E-05 11:35:29.460 1.500E-01 0.500 F 0.259 0.234 -02° 22' 48.00" 1.000E-01 0.500 F 0.072 -0.281 20.9 V 0.70 -0.20 o 691 0.77 Yes Yes
2016EK157 O C m 2016-04-14.18438 1.000E-05 11:35:29.310 1.500E-01 0.500 F 0.259 -0.635 -02° 23' 03.40" 1.000E-01 0.500 F 0.072 0.234 21.1 V 0.70 0.00 o 691 1.42 Yes Yes
2016GD1 O C H 2016-04-14.22380 1.000E-05 13:27:22.790 1.500E-01 0.500 F 0.233 0.504 -14° 35' 26.60" 1.000E-01 0.500 F -0.046 -0.738 o 691 1.80 Yes No
2016GD1 O C H 2016-04-14.22814 1.000E-05 13:27:22.790 1.500E-01 0.500 F 0.233 0.680 -14° 35' 34.40" 1.000E-01 0.500 F -0.046 -0.569 o 691 1.78 Yes No
2016GD1 O C H 2016-04-14.23247 1.000E-05 13:27:22.740 1.500E-01 0.500 F 0.233 0.142 -14° 35' 42.80" 1.000E-01 0.500 F -0.046 -1.024 o 691 2.08 Yes No
2016GP220 O C m 2016-04-14.24762 1.000E-05 12:14:02.440 1.500E-01 0.500 F 0.190 -1.551 +22° 33' 15.80" 1.000E-01 0.500 F 0.222 -0.594 o 691 3.31 No No
2016GP220 O C m 2016-04-14.25380 1.000E-05 12:14:01.470 1.500E-01 0.500 F 0.190 0.251 +22° 33' 10.30" 1.000E-01 0.500 F 0.222 -1.134 o 691 2.33 Yes No
2014ED O C H 2016-04-14.31940 1.000E-05 15:17:28.070 1.500E-01 0.500 F 0.170 0.756 +15° 20' 42.50" 1.000E-01 0.500 F 0.165 -0.652 o 691 2.01 Yes No
2014ED O C H 2016-04-14.32234 1.000E-05 15:17:27.540 1.500E-01 0.500 F 0.170 -0.415 +15° 20' 42.50" 1.000E-01 0.500 F 0.165 -0.961 o 691 2.10 Yes No
2014ED O C H 2016-04-14.32530 1.000E-05 15:17:27.050 1.500E-01 0.500 F 0.170 -0.962 +15° 20' 43.30" 1.000E-01 0.500 F 0.165 -0.471 o 691 2.15 Yes No
2016GM2 O C H 2016-04-14.32894 1.000E-05 15:12:26.420 1.500E-01 0.500 F 0.104 0.714 +00° 45' 57.00" 1.000E-01 0.500 F 0.142 -0.354 o 691 1.71 Yes No
2016GM2 O C H 2016-04-14.33073 1.000E-05 15:12:29.620 1.500E-01 0.500 F 0.104 0.661 +00° 45' 39.80" 1.000E-01 0.500 F 0.142 -0.772 o 691 2.18 Yes No
2016GM2 O C H 2016-04-14.33252 1.000E-05 15:12:32.740 1.500E-01 0.500 F 0.104 -0.593 +00° 45' 23.60" 1.000E-01 0.500 F 0.142 -0.187 o 691 1.33 Yes No
2016FY3 O C H 2016-04-14.33677 1.000E-05 15:04:35.610 1.500E-01 0.500 F 0.000 0.105 +21° 42' 44.20" 1.000E-01 0.500 F 0.327 -0.137 18.7 V 0.70 0.17 o 691 0.35 Yes Yes
2016FY3 O C H 2016-04-14.33972 1.000E-05 15:04:35.930 1.500E-01 0.500 F 0.000 -0.056 +21° 42' 40.90" 1.000E-01 0.500 F 0.327 -0.143 18.7 V 0.70 0.17 o 691 0.31 Yes Yes
2016FY3 O C H 2016-04-14.34266 1.000E-05 15:04:36.270 1.500E-01 0.500 F 0.000 0.080 +21° 42' 37.60" 1.000E-01 0.500 F 0.327 -0.150 18.6 V 0.70 0.07 o 691 0.34 Yes Yes
2016GT220 O C H 2016-04-14.34822 1.000E-05 13:30:33.140 1.500E-01 0.500 F 0.333 0.024 -30° 18' 21.00" 1.000E-01 0.500 F 0.299 -0.025 20.6 V 0.70 -0.09 o 691 0.07 Yes Yes
2016GT220 O C H 2016-04-14.35117 1.000E-05 13:30:32.800 1.500E-01 0.500 F 0.333 0.257 -30° 18' 21.60" 1.000E-01 0.500 F 0.299 -0.468 20.5 V 0.70 -0.19 o 691 1.07 Yes Yes
2016GT220 O C H 2016-04-14.35412 1.000E-05 13:30:32.460 1.500E-01 0.500 F 0.333 0.490 -30° 18' 21.60" 1.000E-01 0.500 F 0.299 -0.312 20.6 V 0.70 -0.09 o 691 1.16 Yes Yes
2016GU220 O C H 2016-04-14.39250 1.000E-05 14:58:53.410 1.500E-01 0.500 F 0.330 0.616 -27° 48' 09.10" 1.000E-01 0.500 F 0.334 -0.597 o 691 1.73 Yes No
2016GU220 O C H 2016-04-14.39614 1.000E-05 14:58:52.890 1.500E-01 0.500 F 0.330 0.816 -27° 48' 14.50" 1.000E-01 0.500 F 0.334 -0.371 o 691 1.81 Yes No
2016GU220 O C H 2016-04-14.39978 1.000E-05 14:58:52.340 1.500E-01 0.500 F 0.330 0.617 -27° 48' 20.40" 1.000E-01 0.500 F 0.334 -0.649 o 691 1.81 Yes No
2014JY24 O C H 2016-04-14.40785 1.000E-05 16:53:16.600 1.500E-01 0.500 F 0.154 0.108 +08° 42' 38.80" 1.000E-01 0.500 F 0.144 -1.082 o 691 2.19 Yes No
2014JY24 O C H 2016-04-14.41033 1.000E-05 16:53:16.040 1.500E-01 0.500 F 0.154 -0.316 +08° 42' 36.40" 1.000E-01 0.500 F 0.144 -0.880 o 691 1.88 Yes No
2016GK222 O C H 2016-04-14.41843 1.000E-05 16:23:06.260 1.500E-01 0.500 F 0.209 -0.339 -07° 52' 59.30" 1.000E-01 0.500 F 0.189 -0.299 o 691 0.94 Yes No
2016GK222 O C H 2016-04-14.42160 1.000E-05 16:23:06.040 1.500E-01 0.500 F 0.209 0.155 -07° 52' 46.40" 1.000E-01 0.500 F 0.189 0.820 o 691 1.73 Yes No
2016GK222 O C H 2016-04-14.42478 1.000E-05 16:23:05.840 1.500E-01 0.500 F 0.209 0.960 -07° 52' 36.80" 1.000E-01 0.500 F 0.189 -1.398 o 691 3.28 No No
2016GD134 O C H 2016-04-14.42984 1.000E-05 15:58:38.520 1.500E-01 0.500 F 0.139 0.383 -02° 55' 23.00" 1.000E-01 0.500 F 0.255 -0.699 o 691 1.60 Yes No
2016GD134 O C H 2016-04-14.43209 1.000E-05 15:58:38.320 1.500E-01 0.500 F 0.139 0.512 -02° 55' 15.50" 1.000E-01 0.500 F 0.255 -1.274 o 691 2.76 Yes No
2016GD134 O C H 2016-04-14.43435 1.000E-05 15:58:38.130 1.500E-01 0.500 F 0.139 0.804 -02° 55' 06.80" 1.000E-01 0.500 F 0.255 -0.685 o 691 2.12 Yes No
2016FU3 O C H 2016-04-14.44898 1.000E-05 15:44:49.820 1.500E-01 0.500 F 0.109 0.088 -03° 46' 44.20" 1.000E-01 0.500 F 0.121 -0.839 o 691 1.75 Yes No
2016FU3 O C H 2016-04-14.45147 1.000E-05 15:44:49.620 1.500E-01 0.500 F 0.109 -0.176 -03° 46' 57.00" 1.000E-01 0.500 F 0.121 -1.277 o 691 2.67 Yes No
2016FU3 O C H 2016-04-14.45395 1.000E-05 15:44:49.450 1.500E-01 0.500 F 0.109 -0.005 -03° 47' 09.00" 1.000E-01 0.500 F 0.121 -0.966 o 691 2.00 Yes No
2006JF42 O C H 2016-04-14.47340 1.000E-05 20:16:57.600 1.500E-01 0.500 F -0.010 0.787 -21° 25' 01.70" 1.000E-01 0.500 F -0.045 -1.294 o 691 3.03 Yes No
2006JF42 O C H 2016-04-14.47680 1.000E-05 20:16:57.900 1.500E-01 0.500 F -0.010 0.682 -21° 25' 03.10" 1.000E-01 0.500 F -0.045 -1.207 o 691 2.78 Yes No
2006JF42 O C H 2016-04-14.48022 1.000E-05 20:16:58.210 1.500E-01 0.500 F -0.010 0.697 -21° 25' 04.10" 1.000E-01 0.500 F -0.045 -0.713 o 691 2.00 Yes No
2009FU23 O C m 2016-04-14.48527 1.000E-05 20:44:55.220 1.500E-01 0.500 F 0.003 -0.517 -14° 32' 17.60" 1.000E-01 0.500 F 0.206 -1.476 o 691 3.14 Yes No
2009FU23 O C m 2016-04-14.48775 1.000E-05 20:44:56.120 1.500E-01 0.500 F 0.003 -0.049 -14° 32' 18.40" 1.000E-01 0.500 F 0.206 -1.598 o 691 3.19 No No
2015UK52 O C H 2016-04-15.15237 1.000E-05 09:22:34.300 1.500E-01 0.500 F 0.247 1.414 -28° 34' 38.70" 1.000E-01 0.500 F -0.040 -0.521 o 691 3.05 Yes No
2015UK52 O C H 2016-04-15.15578 1.000E-05 09:22:34.810 1.500E-01 0.500 F 0.247 -0.036 -28° 34' 32.10" 1.000E-01 0.500 F -0.040 -0.710 o 691 1.43 Yes No
2015UK52 O C H 2016-04-15.15919 1.000E-05 09:22:35.470 1.500E-01 0.500 F 0.247 0.489 -28° 34' 26.60" 1.000E-01 0.500 F -0.040 -2.002 o 691 4.09 No No
1997XR2 O C H 2016-04-15.17598 1.000E-05 09:20:11.160 1.500E-01 0.500 F 0.074 0.209 -05° 06' 17.60" 1.000E-01 0.500 F 0.010 -0.474 o 691 1.04 Yes No
1997XR2 O C H 2016-04-15.17938 1.000E-05 09:20:11.220 1.500E-01 0.500 F 0.074 0.107 -05° 06' 14.50" 1.000E-01 0.500 F 0.010 -0.946 o 691 1.91 Yes No
1997XR2 O C H 2016-04-15.18280 1.000E-05 09:20:11.320 1.500E-01 0.500 F 0.074 0.594 -05° 06' 10.30" 1.000E-01 0.500 F 0.010 -0.340 o 691 1.37 Yes No
2016EK158 O C H 2016-04-15.24035 1.000E-05 11:31:15.760 1.500E-01 0.612 F 0.145 -1.617 +01° 20' 32.20" 1.000E-01 0.612 F 0.185 -2.127 o 691 4.28 No No
2016EK158 O C H 2016-04-15.24607 1.000E-05 11:31:14.860 1.500E-01 0.612 F 0.145 -2.716 +01° 20' 28.70" 1.000E-01 0.612 F 0.185 -1.331 o 691 4.88 No No
2016EK158 O C H 2016-04-15.25179 1.000E-05 11:31:14.190 1.500E-01 0.612 F 0.145 -0.372 +01° 20' 23.70" 1.000E-01 0.612 F 0.185 -2.035 o 691 3.32 No No
2016EM28 O C H 2016-04-15.25748 1.000E-05 11:06:08.850 1.500E-01 0.500 F 0.006 0.534 -06° 10' 44.40" 1.000E-01 0.500 F 0.080 -1.601 o 691 3.28 No No
2016EM28 O C H 2016-04-15.26135 1.000E-05 11:06:09.000 1.500E-01 0.500 F 0.006 -0.984 -06° 10' 35.70" 1.000E-01 0.500 F 0.080 -1.299 o 691 3.17 No No
2016EM28 O C H 2016-04-15.26520 1.000E-05 11:06:09.360 1.500E-01 0.500 F 0.006 0.645 -06° 10' 24.20" 1.000E-01 0.500 F 0.080 1.847 o 691 3.80 No No
2016EK158 O C H 2016-04-15.27125 1.000E-05 11:31:11.590 1.500E-01 0.612 F 0.106 2.789 +01° 20' 10.30" 1.000E-01 0.612 F 0.165 -0.796 o 691 4.70 No No
2016EK158 O C H 2016-04-15.27581 1.000E-05 11:31:10.960 1.500E-01 0.612 F 0.106 3.197 +01° 20' 06.10" 1.000E-01 0.612 F 0.165 -1.569 o 691 5.78 No No
2016EK158 O C H 2016-04-15.28038 1.000E-05 11:31:10.120 1.500E-01 0.612 F 0.106 0.473 +01° 20' 01.80" 1.000E-01 0.612 F 0.165 -2.436 o 691 3.99 No No
2016GD241 O C H 2016-04-15.33647 1.000E-05 15:54:06.450 1.500E-01 0.500 F 0.217 0.116 -23° 01' 24.30" 1.000E-01 0.500 F 0.205 -1.100 o 691 2.24 Yes No
2016GD241 O C H 2016-04-15.33895 1.000E-05 15:54:06.560 1.500E-01 0.500 F 0.217 0.205 -23° 01' 29.80" 1.000E-01 0.500 F 0.205 -0.818 o 691 1.71 Yes No
2016GD241 O C H 2016-04-15.34143 1.000E-05 15:54:06.680 1.500E-01 0.500 F 0.217 0.435 -23° 01' 36.50" 1.000E-01 0.500 F 0.205 -1.737 o 691 3.53 No No
2016FJ39 O C H 2016-04-15.35945 1.000E-05 15:40:46.820 1.500E-01 0.500 F 0.300 -1.047 +08° 43' 10.90" 1.000E-01 0.500 F 0.231 -0.945 o 691 2.83 Yes No
2016FJ39 O C H 2016-04-15.36402 1.000E-05 15:40:47.340 1.500E-01 0.500 F 0.300 0.500 +08° 43' 10.70" 1.000E-01 0.500 F 0.231 -0.877 o 691 2.02 Yes No
2016FJ39 O C H 2016-04-15.36858 1.000E-05 15:40:47.750 1.500E-01 0.500 F 0.300 0.436 +08° 43' 10.50" 1.000E-01 0.500 F 0.231 -0.806 o 691 1.84 Yes No
2016GD134 O C H 2016-04-15.37827 1.000E-05 15:57:35.160 1.500E-01 0.500 F 0.269 0.695 -01° 59' 07.90" 1.000E-01 0.500 F 0.210 -0.486 o 691 1.70 Yes No
2016GD134 O C H 2016-04-15.38075 1.000E-05 15:57:34.900 1.500E-01 0.500 F 0.269 0.361 -01° 58' 59.60" 1.000E-01 0.500 F 0.210 -0.935 o 691 2.02 Yes No
2016GD134 O C H 2016-04-15.38322 1.000E-05 15:57:34.620 1.500E-01 0.500 F 0.269 -0.284 -01° 58' 51.10" 1.000E-01 0.500 F 0.210 -1.149 o 691 2.38 Yes No
2016GK222 O C H 2016-04-15.42198 1.000E-05 16:21:51.350 1.500E-01 0.500 F 0.049 -0.056 -06° 51' 07.40" 1.000E-01 0.500 F 0.115 -1.723 o 691 3.38 No No
2016GK222 O C H 2016-04-15.42469 1.000E-05 16:21:51.160 1.500E-01 0.500 F 0.049 0.443 -06° 50' 55.90" 1.000E-01 0.500 F 0.115 -0.203 o 691 0.99 Yes No
2016GK222 O C H 2016-04-15.42741 1.000E-05 16:21:50.890 1.500E-01 0.500 F 0.049 -0.238 -06° 50' 46.70" 1.000E-01 0.500 F 0.115 -1.020 o 691 2.14 Yes No
2015XR128 O C H 2016-04-17.13352 1.000E-05 08:05:56.280 1.500E-01 0.500 F -0.092 1.558 -04° 37' 57.70" 1.000E-01 0.500 F 0.103 -0.904 o 691 3.59 No No
2015XR128 O C H 2016-04-17.13600 1.000E-05 08:05:56.640 1.500E-01 0.500 F -0.092 0.638 -04° 37' 58.00" 1.000E-01 0.500 F 0.103 -0.314 o 691 1.43 Yes No
2015XR128 O C H 2016-04-17.13848 1.000E-05 08:05:57.090 1.500E-01 0.500 F -0.092 1.063 -04° 37' 59.40" 1.000E-01 0.500 F 0.103 -0.824 o 691 2.70 Yes No
2009HA21 O C H 2016-04-17.14492 1.000E-05 12:15:28.420 1.500E-01 0.500 F 0.318 0.586 -03° 37' 24.10" 1.000E-01 0.500 F 0.086 -1.291 o 691 2.87 Yes No
2009HA21 O C H 2016-04-17.14879 1.000E-05 12:15:28.050 1.500E-01 0.500 F 0.318 0.143 -03° 37' 19.10" 1.000E-01 0.500 F 0.086 -1.197 o 691 2.44 Yes No

[1-200] [201-400] [401-600] [601-800] [801-1000] [1001-1200] [1201-1400] [1401-1600] [1601-1800] [1801-2000] [2001-2200] [2201-2400] [2401-2600] [2601-2800] [2801-3000] [3001-3200] [3201-3400] [3401-3600] [3601-3800] [3801-4000] [4001-4200] [4201-4400] [4401-4600] [4601-4800] [4801-5000] [5001-5200] [5201-5400] [5401-5600] [5601-5800] [5801-6000] [6001-6200] [6201-6400] [6401-6600] [6601-6800] [6801-7000] [7001-7200] [7201-7400] [7401-7600] [7601-7800] [7801-8000] [8001-8200] [8201-8400] [8401-8600] [8601-8800] [8801-9000] [9001-9200] [9201-9400] [9401-9600] [9601-9800] [9801-10000] [10001-10200] [10201-10400] [10401-10600] [10601-10800] [10801-11000] [11001-11200] [11201-11400] [11401-11600] [11601-11800] [11801-12000] [12001-12200] [12201-12400] [12401-12600] [12601-12800] [12801-13000] [13001-13200] [13201-13400] [13401-13600] [13601-13800] [13801-14000] [14001-14200] [14201-14400] [14401-14600] [14601-14800] [14801-15000] [15001-15200] [15201-15400] [15401-15600] [15601-15800] [15801-16000] [16001-16200] [16201-16400] [16401-16600] [16601-16800] [16801-17000] [17001-17200] [17201-17400] [17401-17600] [17601-17800] [17801-18000] [18001-18200] [18201-18400] [18401-18600] [18601-18800] [18801-19000] [19001-19200] [19201-19400] [19401-19600] [19601-19800] [19801-20000] [20001-20200] [20201-20400] [20401-20600] [20601-20800] [20801-21000] [21001-21200] [21201-21400] [21401-21600] [21601-21800] [21801-22000] [22001-22200] [22201-22400] [22401-22600] [22601-22800] [22801-23000] [23001-23200] [23201-23400] [23401-23600] [23601-23800] [23801-24000] [24001-24200] [24201-24400] [24401-24600] [24601-24800] [24801-25000] [25001-25200] [25201-25400] [25401-25600] [25601-25800] [25801-26000] [26001-26200] [26201-26400] [26401-26600] [26601-26800] [26801-27000] [27001-27200] [27201-27400] [27401-27600] [27601-27800] [27801-28000] [28001-28200] [28201-28400] [28401-28600] [28601-28800] [28801-29000] [29001-29200] [29201-29400] [29401-29600] [29601-29800] [29801-30000] [30001-30200] [30201-30400] [30401-30600] [30601-30800] [30801-31000] [31001-31200] [31201-31400] [31401-31600] [31601-31800] [31801-32000] [32001-32200] [32201-32400] [32401-32600] [32601-32800] [32801-33000] [33001-33200] [33201-33400] [33401-33600] [33601-33800] [33801-34000] [34001-34200] [34201-34400] [34401-34600] [34601-34800] [34801-35000] [35001-35200] [35201-35400] [35401-35600] [35601-35800] [35801-36000] [36001-36200] [36201-36400] [36401-36600] [36601-36800] [36801-37000] [37001-37200] [37201-37400] [37401-37600] [37601-37800] [37801-38000] [38001-38200] [38201-38400] [38401-38600] [38601-38800] [38801-39000] [39001-39200] [39201-39400] [39401-39600] [39601-39800] [39801-40000] [40001-40200] [40201-40400] [40401-40600] [40601-40800] [40801-41000] [41001-41200] [41201-41400] [41401-41600] [41601-41800] [41801-42000] [42001-42200] [42201-42400] [42401-42600] [42601-42800] [42801-43000] [43001-43200] [43201-43400] [43401-43600] [43601-43800] [43801-44000] [44001-44200] [44201-44400] [44401-44600] [44601-44800] [44801-45000] [45001-45200] [45201-45400] [45401-45600] [45601-45800] [45801-46000] [46001-46200] [46201-46400] [46401-46600] [46601-46800] [46801-47000] [47001-47200] [47201-47400] [47401-47600] [47601-47800] [47801-48000] [48001-48200] [48201-48400] [48401-48600] [48601-48800] [48801-49000] [49001-49200] [49201-49400] [49401-49600] [49601-49800] [49801-50000] [50001-50200] [50201-50388]